Theta_e
310 311 310 310 309 309 308 307 307 307 307 307 306 305 304 304 305 305 306 307 308 308 309 308 309 309 310 311 312 313 315 317 318 320 321 321 322 323 324 324 324 325 326 326 327 328 328 329 329 329 328 328 328 328 328 328 327 327 327 326 326 326 326
311 311 311 310 310 309 309 308 308 307 307 307 306 306 305 305 305 304 305 304 305 305 305 305 306 307 308 310 311 314 316 318 318 318 319 319 319 320 321 322 323 323 323 324 325 326 326 327 328 329 329 329 329 328 328 328 328 328 328 328 327 327 327
311 311 311 311 311 310 310 309 308 308 308 307 307 306 306 306 306 306 305 305 305 305 305 304 304 305 305 306 307 310 313 316 318 319 319 318 318 319 320 320 321 321 322 323 323 324 324 325 325 326 327 328 328 328 328 328 328 328 328 328 328 328 328
311 311 311 311 311 311 310 310 309 308 308 307 307 306 306 306 306 306 306 306 306 305 305 305 305 305 304 304 304 305 307 310 313 315 317 318 318 319 320 320 319 319 320 322 322 323 324 324 324 324 324 325 325 327 328 329 328 329 328 328 328 328 328
311 311 311 311 311 311 311 310 309 309 308 308 307 307 307 306 306 306 306 306 306 305 305 305 305 305 305 305 304 304 304 304 305 307 309 312 315 317 318 319 319 319 319 320 321 322 323 324 324 323 323 324 323 324 325 326 327 328 329 328 328 328 328
311 311 312 311 311 312 311 311 310 309 309 308 308 307 307 307 306 306 306 306 306 305 305 305 305 305 305 305 305 305 304 304 304 304 304 305 306 308 310 312 315 316 317 318 319 320 322 323 323 323 324 324 324 324 323 324 324 325 327 328 328 329 329
311 311 312 312 312 312 312 311 310 309 309 308 308 308 307 307 306 306 306 306 306 306 305 305 305 305 305 305 305 304 304 304 304 303 303 303 303 303 304 304 306 309 312 315 316 317 319 320 322 322 323 323 323 323 323 323 324 323 325 326 327 328 329
312 312 312 312 312 312 312 311 310 310 309 309 308 308 307 307 307 307 306 306 306 306 305 305 305 305 305 305 305 305 304 304 303 303 303 303 303 302 302 302 302 303 305 309 312 315 317 318 320 320 320 321 322 322 322 323 323 323 323 324 325 326 327
312 312 312 312 312 312 312 311 311 310 310 309 308 308 308 307 307 307 306 306 306 306 305 305 305 305 305 305 305 305 304 304 304 304 303 303 303 302 302 302 302 302 302 304 307 311 315 316 318 318 318 319 320 321 321 321 322 322 323 323 323 324 324
312 312 312 311 311 311 311 311 311 311 310 309 309 308 308 307 307 307 306 306 306 305 305 304 304 305 305 305 305 304 304 304 304 304 303 303 303 303 303 302 302 302 302 302 303 306 309 313 315 316 317 317 318 319 319 320 321 321 322 321 322 323 323
313 312 311 311 311 311 311 311 311 310 310 309 309 308 308 307 307 307 306 306 306 305 304 305 305 305 305 305 304 304 304 303 303 304 303 303 303 303 303 303 303 303 303 302 302 302 304 307 310 313 315 316 316 317 317 318 319 319 318 319 320 321 322
314 312 312 311 311 310 310 310 310 310 310 309 309 309 308 307 307 306 306 306 306 305 304 304 305 305 305 304 304 304 303 303 303 303 303 303 303 303 303 303 303 303 303 303 302 302 302 303 305 308 310 312 313 315 316 317 318 316 316 318 319 319 320
315 313 312 311 310 310 310 310 310 310 310 309 309 309 308 307 307 306 306 306 305 304 304 304 304 304 304 304 303 303 303 303 303 303 303 303 303 303 302 302 302 302 303 303 303 303 302 302 302 304 306 309 311 313 315 317 317 316 315 316 317 318 319
316 314 312 311 310 310 310 310 310 311 310 309 309 309 308 307 306 306 306 306 304 304 304 304 304 304 303 303 303 303 303 303 303 303 303 303 303 303 302 302 301 301 302 303 303 303 303 303 303 302 304 306 308 311 313 315 316 316 315 315 316 318 318
315 314 313 311 310 310 310 310 310 310 310 310 309 309 308 307 306 306 306 305 304 304 304 303 303 303 303 303 303 303 303 303 303 303 303 302 302 302 302 301 301 301 302 303 303 303 304 304 304 303 302 304 306 309 312 313 315 316 315 315 315 316 317
315 315 313 311 310 310 310 310 309 310 310 310 309 309 308 307 306 306 306 304 303 303 303 303 303 303 303 303 303 303 303 303 302 302 302 302 302 302 302 302 301 301 302 302 303 303 304 304 304 304 303 303 304 306 309 312 313 314 315 314 314 315 317
316 315 314 312 311 310 310 310 309 309 310 310 310 309 308 306 306 306 305 303 303 303 303 303 303 303 303 303 302 302 302 302 302 301 301 301 301 301 301 301 301 301 302 302 302 302 303 304 304 305 305 304 304 304 306 309 310 312 313 314 314 315 316
317 316 315 315 313 310 310 310 309 309 310 310 310 309 307 307 306 305 303 303 303 303 303 303 303 302 302 302 302 301 301 301 300 300 300 300 300 300 300 300 300 300 301 301 301 301 302 303 303 304 305 305 305 305 304 306 307 309 311 312 312 313 314
318 316 316 317 316 312 310 310 310 310 310 311 310 309 307 307 306 304 303 303 303 302 302 302 302 302 301 301 300 300 300 300 300 300 299 299 299 299 299 299 299 299 300 301 301 301 301 301 302 303 304 304 305 305 305 305 305 306 308 310 311 311 312
319 318 316 318 319 316 311 310 310 310 311 311 310 308 307 306 304 303 302 302 302 302 302 302 302 301 301 300 300 300 300 300 300 299 299 298 298 298 298 298 298 298 299 300 300 300 300 301 301 301 302 303 303 303 303 304 304 305 305 306 308 310 311
319 319 318 318 320 319 314 311 311 311 311 310 309 308 307 305 303 302 302 302 301 301 301 301 301 301 300 300 300 300 300 300 300 299 298 296 296 296 297 296 297 298 298 299 300 300 300 300 300 300 301 301 302 302 302 302 303 303 303 304 306 307 309
321 321 321 320 321 321 315 312 312 312 311 310 309 308 305 303 303 302 302 301 301 301 301 301 301 301 301 300 300 300 300 300 299 298 296 296 295 296 296 296 297 298 298 299 299 299 300 300 300 300 300 300 300 301 301 301 301 301 302 303 304 305 306
322 322 323 321 321 320 316 313 313 312 310 310 308 306 304 303 303 302 302 302 301 301 301 301 301 301 301 301 301 301 300 299 298 296 295 295 295 296 297 297 298 298 299 299 299 299 299 299 299 299 299 299 299 299 299 300 300 300 300 301 302 304 305
323 322 321 319 317 317 316 314 313 311 310 309 307 305 304 304 303 302 302 302 302 302 301 301 301 301 301 301 300 299 297 296 295 295 295 296 296 296 297 297 298 298 298 298 298 298 299 299 299 298 298 298 298 298 298 299 299 300 299 300 301 302 303
322 321 319 318 316 315 314 313 312 311 309 307 305 305 304 303 303 302 303 303 303 302 301 301 301 301 301 299 297 296 295 295 295 296 296 297 297 297 297 297 298 298 298 298 298 298 298 298 299 298 298 298 298 298 298 298 298 299 299 299 300 300 302
321 321 319 317 317 315 313 312 312 310 308 306 305 305 304 303 303 303 304 303 303 302 301 301 301 300 298 296 295 295 295 295 295 296 296 297 297 297 297 297 297 298 297 297 297 297 298 298 298 298 298 298 298 298 298 297 298 298 298 298 298 300 301
320 320 318 317 316 315 313 312 311 309 307 306 306 305 304 304 304 304 304 303 303 302 301 300 298 296 295 294 294 294 295 294 295 295 295 296 296 297 297 297 297 297 297 297 296 296 296 297 297 298 298 298 298 298 298 298 297 297 297 297 297 299 301
320 319 317 317 315 314 312 311 309 307 305 305 305 304 304 305 305 304 304 303 302 301 299 297 295 294 293 293 293 293 294 294 294 294 294 295 296 296 297 297 296 296 296 296 295 295 295 295 296 296 297 297 297 298 298 298 298 297 297 297 297 298 300
319 318 317 317 315 313 312 310 308 306 304 304 304 305 305 305 304 304 303 302 300 298 297 296 295 294 293 292 292 292 293 293 293 293 294 295 296 296 296 296 296 296 296 295 295 295 294 294 294 295 295 296 296 297 297 297 297 297 297 297 297 297 298
318 318 317 316 313 311 310 309 307 305 304 304 305 305 305 304 304 303 301 299 297 296 297 296 295 294 293 293 292 293 293 293 293 294 294 295 295 296 296 296 295 295 295 295 295 294 294 294 294 294 294 295 295 296 297 297 297 297 297 297 297 297 297
317 317 316 314 311 310 309 308 306 305 305 305 305 305 304 303 302 299 298 297 297 297 297 296 294 293 293 293 293 293 293 293 293 294 295 295 295 295 295 295 295 295 295 294 294 294 293 293 293 293 293 293 294 295 296 296 296 297 296 296 296 296 296
316 315 314 312 311 310 308 306 306 306 305 305 304 303 302 300 298 297 296 297 297 297 296 294 294 293 293 293 292 292 293 293 294 294 295 295 295 295 295 295 295 294 294 293 293 293 293 292 292 293 292 292 293 294 295 295 296 296 295 295 295 295 295
314 314 312 311 309 308 305 305 305 305 304 304 302 300 298 297 296 296 296 296 296 295 294 293 293 293 292 292 292 293 293 294 294 294 295 294 295 295 295 295 294 294 293 293 293 293 293 293 292 293 292 292 292 293 294 294 295 295 294 295 295 295 295
312 311 310 308 306 305 304 305 304 303 302 300 298 296 296 295 295 295 295 295 294 294 293 293 293 292 292 292 292 293 293 294 294 294 294 294 294 294 294 294 294 293 293 293 293 293 293 293 293 293 293 292 293 293 293 293 293 293 294 294 294 294 294
309 307 306 305 305 305 304 303 302 300 298 296 295 295 295 295 295 294 294 293 292 292 292 292 292 291 291 292 293 293 293 294 293 293 293 293 293 292 293 293 292 292 292 292 292 292 292 292 292 292 293 292 292 292 292 292 292 292 293 293 293 294 294
306 305 304 303 303 302 300 299 297 296 295 295 295 295 295 295 295 294 292 292 292 292 292 291 291 291 291 292 293 293 293 293 293 292 292 292 292 292 292 292 292 292 292 291 291 291 291 291 291 291 292 293 293 293 292 292 292 292 292 292 293 293 294
303 303 302 301 299 299 298 297 296 296 296 295 295 296 296 296 294 292 291 291 291 291 291 290 290 291 291 292 293 293 293 292 292 292 291 291 291 291 291 291 291 292 291 291 291 291 291 290 291 291 292 293 293 293 292 292 292 292 292 293 293 294 294
Wind_Speed
6 6 5 3 3 2 3 4 4 4 5 6 6 7 8 7 7 5 3 2 2 1 2 2 2 4 6 6 7 8 10 11 11 11 10 10 9 9 10 12 12 13 14 14 14 15 15 18 20 18 18 20 20 21 21 22 23 25 27 28 28 28 28
7 8 6 4 3 3 2 2 3 2 3 4 5 6 6 7 7 6 5 4 4 4 4 4 3 2 3 5 6 7 9 10 11 12 12 12 12 11 11 11 11 12 12 12 13 15 16 17 20 20 19 20 21 21 19 18 19 20 22 25 27 28 28
9 9 8 5 4 4 3 2 2 2 1 2 3 4 5 5 5 5 5 4 4 4 4 4 3 3 3 4 5 6 8 10 12 13 14 14 14 14 13 13 13 13 12 10 11 12 14 16 18 20 20 21 23 24 24 23 23 23 22 21 22 25 27
10 10 8 7 6 5 4 4 4 3 2 1 1 2 3 3 3 3 3 3 3 3 4 4 4 3 4 5 6 7 8 10 12 14 15 16 17 17 16 15 16 15 13 12 12 11 11 14 17 20 21 22 24 26 26 27 28 29 28 25 22 22 24
11 10 8 7 6 5 5 6 6 5 4 3 2 1 1 1 1 1 2 3 3 4 5 5 5 5 5 6 7 8 10 11 12 14 15 16 18 19 19 18 18 18 16 17 17 16 13 12 14 18 19 20 23 27 28 27 26 27 29 30 28 25 24
13 11 10 8 8 7 7 8 8 6 5 4 3 3 2 1 2 3 4 5 6 7 7 7 7 7 7 7 7 8 9 11 13 15 16 17 18 19 20 20 20 20 20 20 21 20 19 18 16 17 17 17 20 24 26 26 27 27 27 28 30 30 29
15 13 12 10 9 9 9 10 9 8 7 6 5 5 4 3 3 4 6 7 8 9 10 9 9 9 9 8 7 7 8 9 10 12 14 16 18 19 20 21 21 22 22 22 22 22 22 21 20 19 18 18 19 21 23 23 25 26 27 25 25 26 29
16 14 13 11 11 11 11 10 10 10 9 8 8 7 6 5 5 6 7 9 10 11 11 11 10 10 9 9 8 7 7 8 8 9 10 12 14 17 19 21 22 22 23 23 24 24 23 22 22 22 20 20 21 23 24 23 23 24 25 25 23 22 24
18 16 14 13 12 12 12 11 11 11 10 10 10 9 8 7 7 7 9 10 12 12 12 11 10 10 10 10 10 10 10 9 9 9 9 10 11 13 15 18 20 22 23 24 25 25 25 24 24 24 23 20 20 23 25 25 24 24 23 23 22 22 21
19 17 15 14 13 13 13 13 12 12 12 12 11 11 10 9 8 9 10 12 13 14 13 13 12 12 12 12 13 13 12 12 12 11 11 12 12 13 14 15 17 19 21 23 24 25 26 26 26 25 25 22 20 21 24 26 26 25 24 23 23 22 21
20 18 16 14 13 14 14 14 14 14 13 13 12 12 11 10 9 10 12 13 14 14 14 13 13 13 13 14 15 15 15 15 15 14 14 15 15 15 16 16 16 17 19 20 21 24 26 27 27 26 26 25 23 22 23 26 29 30 29 27 25 24 24
20 19 17 16 16 15 15 15 15 14 14 14 13 13 12 11 11 12 13 14 15 14 14 13 13 14 14 15 16 17 18 18 18 18 18 18 18 18 18 18 18 19 20 20 20 20 22 25 26 27 27 27 26 24 23 24 29 32 30 29 28 27 26
22 20 19 18 18 17 16 16 16 15 15 15 14 14 13 12 12 13 15 15 15 15 14 13 14 14 15 17 18 19 20 20 21 21 21 22 21 21 21 21 20 20 21 22 21 20 20 21 24 26 27 27 26 26 25 24 26 30 30 29 30 29 27
23 22 22 21 20 19 17 17 17 17 17 16 15 15 14 13 14 15 15 15 15 15 14 13 14 15 17 18 20 21 22 22 23 23 24 24 23 24 24 24 23 22 21 22 22 22 21 20 21 24 26 27 27 26 25 25 25 28 30 30 28 28 27
25 25 24 24 23 21 20 18 18 18 18 18 17 15 14 14 15 16 16 15 14 14 13 13 14 16 18 20 21 22 23 23 25 26 26 26 26 26 26 25 24 23 21 21 22 22 23 22 22 22 24 26 27 27 26 25 24 25 30 33 31 29 27
28 28 27 27 26 24 22 20 19 19 19 19 18 17 16 15 16 16 15 14 13 12 12 12 14 16 18 20 21 22 23 24 25 26 27 28 28 27 27 27 26 24 23 22 22 22 23 23 24 23 23 23 25 27 26 25 24 23 26 31 32 30 29
31 31 31 30 28 26 24 21 21 20 20 20 19 18 17 17 17 16 14 13 12 11 11 13 14 16 18 19 20 21 22 23 24 25 26 27 28 28 28 29 29 27 25 25 25 24 24 24 25 24 24 23 23 26 27 26 26 25 26 30 33 32 30
33 34 34 33 30 28 25 23 22 21 21 21 20 19 18 18 16 14 13 12 11 11 12 14 15 16 17 18 19 19 20 21 22 24 25 27 28 29 29 31 31 28 26 26 26 26 25 24 24 24 24 24 23 24 26 27 28 29 29 33 36 36 34
36 36 36 35 33 30 27 25 23 22 21 21 21 20 19 17 14 13 12 11 10 11 13 15 16 17 17 17 18 20 21 23 25 26 27 28 29 29 29 31 31 29 26 25 25 26 25 25 24 24 24 25 24 23 24 26 27 28 30 33 37 39 38
37 38 38 38 36 32 29 26 24 23 21 20 21 20 18 15 13 12 11 10 11 13 14 16 17 17 17 18 20 22 24 26 28 29 30 31 31 30 29 30 30 30 28 26 26 26 26 25 25 25 25 25 25 25 26 26 26 27 28 31 35 39 40
40 40 40 39 38 35 31 27 25 22 20 20 20 19 17 14 12 11 11 11 12 14 16 17 17 17 18 20 22 24 26 28 31 32 33 33 32 32 31 30 30 31 31 30 29 28 28 27 27 28 28 27 28 29 30 30 30 29 29 30 33 37 40
42 43 43 43 42 38 32 28 24 22 21 20 19 18 15 13 12 12 11 12 13 15 17 17 17 18 20 22 24 27 29 31 33 35 35 35 34 33 32 31 30 30 31 31 30 31 31 31 31 32 32 31 32 32 33 33 33 32 31 31 32 34 37
43 45 47 45 40 36 31 26 23 21 20 18 17 16 14 13 13 12 12 13 15 16 17 17 18 20 22 24 27 30 32 35 36 36 36 36 36 35 34 33 32 31 31 31 30 31 32 33 34 35 35 35 34 34 34 34 34 34 33 34 34 34 35
44 44 43 38 32 28 26 23 22 20 18 16 16 15 13 13 13 13 14 14 16 17 18 18 19 21 24 26 29 32 35 36 36 36 36 36 36 35 35 35 34 34 33 33 32 32 32 33 33 34 35 35 34 34 34 34 35 34 34 35 36 35 36
43 42 38 34 30 28 26 23 21 19 16 15 15 14 13 14 14 14 15 15 17 18 19 20 21 23 26 29 31 32 33 33 33 34 34 34 35 35 36 36 37 37 37 36 36 36 36 36 36 35 35 35 35 35 34 35 36 35 35 35 36 37 37
40 40 34 31 32 30 27 24 20 17 16 15 14 14 14 14 14 15 15 16 17 19 20 22 23 26 29 30 30 30 30 30 31 32 33 33 34 35 35 37 38 39 40 39 39 39 38 39 39 38 38 38 37 37 35 35 35 36 36 36 37 39 38
38 36 30 28 30 30 26 22 19 17 16 14 14 14 14 14 15 16 16 17 18 20 21 23 25 27 28 28 27 28 29 31 32 33 34 34 34 35 35 36 38 39 39 40 40 40 40 40 40 40 40 40 39 38 37 36 35 35 35 36 38 39 38
37 34 30 30 31 28 25 22 21 18 16 15 14 14 14 15 16 16 17 18 19 21 22 23 25 26 27 27 28 30 31 33 35 36 36 35 34 35 35 36 37 38 39 39 39 39 39 39 40 41 41 41 41 40 39 38 36 35 35 35 37 39 38
39 37 35 34 32 29 26 23 21 18 16 15 15 14 14 15 16 16 17 18 20 21 21 23 26 27 28 29 31 33 34 37 39 39 39 37 36 36 36 36 38 38 39 39 38 38 38 38 39 41 42 43 43 43 42 41 38 37 37 37 38 38 39
41 39 38 35 32 30 26 22 19 17 16 15 14 14 15 15 15 16 17 18 19 20 21 24 27 28 29 30 32 35 38 40 42 41 40 39 38 38 38 38 38 39 40 40 39 38 37 37 39 41 42 44 45 45 45 43 40 39 38 38 38 38 38
40 39 38 36 32 27 24 20 18 16 14 14 14 14 14 14 14 15 15 16 17 20 22 25 27 28 29 31 34 38 41 42 43 42 41 40 40 40 40 40 39 40 41 40 40 39 38 37 39 40 42 44 46 47 47 44 42 41 40 38 38 37 37
40 40 38 36 31 27 24 20 17 15 14 14 14 13 13 13 13 13 13 15 18 21 24 26 27 28 30 33 37 40 41 42 42 42 42 42 42 42 41 41 41 40 41 41 40 40 39 38 40 41 42 43 47 49 48 44 43 42 40 39 39 38 38
39 39 37 33 29 25 21 17 15 14 14 13 12 12 12 11 11 11 13 16 18 21 24 25 26 29 33 36 38 39 39 40 41 42 42 43 43 44 43 42 42 41 41 41 40 41 41 40 40 42 43 44 48 50 47 44 44 42 40 40 40 39 39
38 35 31 28 23 19 16 14 13 13 12 11 10 9 9 8 9 10 13 16 19 20 22 25 28 31 35 36 37 37 38 39 40 41 43 43 43 44 43 43 42 41 40 40 40 39 39 39 39 40 42 44 46 47 45 44 43 42 41 41 40 39 40
33 28 25 22 19 16 14 13 12 11 9 8 7 5 6 7 9 11 13 16 18 19 21 25 29 32 35 36 36 36 37 37 37 38 41 42 42 42 42 42 41 40 39 39 39 38 38 38 38 39 41 42 43 43 42 42 42 40 40 40 39 40 41
27 25 22 19 16 14 11 9 7 6 4 2 2 4 6 9 11 13 14 15 17 19 21 25 29 32 35 36 36 36 36 36 35 36 38 40 41 41 41 40 40 39 38 38 38 38 38 38 38 40 41 41 41 42 42 42 42 42 42 42 42 43 43
25 23 20 18 16 14 11 10 7 5 3 3 3 5 8 11 12 14 15 16 17 19 22 26 29 32 35 36 37 37 36 36 35 35 36 39 40 41 41 41 41 40 40 40 40 39 39 39 39 40 41 40 40 40 41 41 42 42 43 43 44 46 46
Wind_Direction
208 209 214 178 148 140 113 105 99 74 57 55 63 71 75 80 82 77 68 53 32 347 336 329 280 267 269 270 269 269 271 275 278 277 279 282 279 271 264 262 263 263 263 268 271 275 282 281 271 258 247 246 252 257 261 263 264 265 267 269 271 271 271
214 220 225 212 189 191 184 138 124 99 66 65 74 83 86 87 87 84 80 70 63 59 47 34 16 331 293 283 275 269 267 268 274 278 278 279 279 277 271 268 271 268 266 268 270 271 275 279 280 276 267 260 255 251 252 260 265 267 268 268 269 270 270
217 222 228 225 222 223 225 220 189 163 120 86 86 97 101 98 97 92 83 70 56 46 35 21 8 340 312 297 283 271 262 259 262 266 270 274 275 276 275 273 273 273 278 280 280 283 282 279 279 279 278 275 270 259 250 253 261 265 267 267 268 268 267
220 224 231 228 228 235 239 245 241 222 204 195 138 117 116 109 101 94 79 61 42 27 9 351 336 313 294 282 276 271 263 259 258 257 259 263 266 269 270 273 274 274 277 280 283 289 291 289 284 282 280 279 280 273 263 260 262 263 262 261 264 267 266
224 226 231 230 230 239 246 252 252 245 232 224 219 193 149 130 87 42 30 20 14 11 4 351 339 326 309 289 276 270 266 264 263 262 261 259 260 262 264 266 267 268 267 267 270 274 279 287 289 289 289 286 286 282 274 272 270 266 262 258 259 263 265
226 227 230 228 226 233 242 248 252 254 248 242 243 247 254 275 302 327 338 345 354 357 356 350 343 337 331 321 306 292 283 276 270 268 267 265 264 264 264 263 261 261 261 260 262 265 268 273 281 290 293 290 291 290 284 280 276 271 265 258 258 261 261
225 227 229 226 225 230 236 242 249 253 252 252 252 252 258 275 294 313 327 337 344 344 342 339 336 335 333 331 328 322 312 300 289 279 272 270 269 269 269 267 264 261 259 258 259 261 263 266 271 281 290 290 290 292 293 291 287 282 274 265 263 263 258
225 227 229 226 227 232 236 242 247 250 254 257 257 259 264 273 289 308 321 329 332 330 328 327 326 326 325 326 331 333 329 322 313 303 290 281 275 273 273 273 271 267 262 259 258 259 260 261 264 269 280 290 292 292 293 296 297 292 283 274 270 267 261
223 226 227 225 227 232 237 243 247 250 253 256 259 263 269 277 289 304 314 319 319 317 317 317 317 316 318 325 331 334 335 332 327 321 313 303 291 283 278 276 275 273 268 263 259 258 258 259 261 262 267 278 288 291 291 294 296 295 291 286 279 273 270
223 226 226 223 226 232 237 242 245 246 247 250 256 261 267 275 284 296 305 308 308 310 310 309 311 315 320 326 328 330 330 328 328 327 323 318 312 303 293 284 280 278 275 270 264 261 259 258 259 260 262 265 273 282 286 288 289 289 288 287 285 282 282
227 229 228 224 226 230 235 239 240 241 243 245 250 254 260 268 278 287 293 298 301 303 304 305 308 313 320 324 325 326 327 325 325 324 322 320 318 314 309 301 292 286 282 279 273 267 262 260 259 258 259 260 261 267 274 280 282 281 283 286 287 285 284
231 231 230 226 225 228 232 236 237 238 240 241 243 247 253 261 269 277 283 291 296 297 298 300 304 310 316 320 322 323 324 324 323 323 323 321 318 315 312 309 303 296 290 286 283 277 269 263 260 259 258 258 258 259 262 271 277 277 280 285 285 283 282
233 233 230 227 226 227 230 235 237 237 237 238 239 241 246 253 260 269 278 286 290 291 293 296 303 311 316 319 321 321 322 322 320 321 321 319 319 316 312 309 306 300 294 290 288 286 279 270 262 259 258 258 257 256 257 262 271 274 275 277 279 281 282
234 233 231 229 228 228 229 232 235 236 235 235 236 238 242 248 255 264 273 281 284 286 288 297 307 313 317 319 320 321 320 319 318 318 317 316 316 314 312 310 307 302 296 291 288 287 285 279 269 261 257 257 256 255 255 258 265 272 271 270 272 277 281
235 234 230 228 229 228 227 229 232 233 232 231 233 235 240 245 252 261 270 276 279 281 289 302 311 313 315 317 318 318 318 317 316 315 315 314 314 313 310 308 307 304 299 293 288 286 285 282 278 270 261 258 257 254 254 256 262 270 270 268 268 270 274
237 235 231 228 228 227 226 225 228 231 231 231 231 232 237 243 250 259 268 272 273 279 292 304 309 310 312 313 313 314 314 313 313 313 312 312 312 311 309 307 305 304 301 296 290 286 285 283 281 278 271 263 260 257 254 254 258 266 270 268 267 268 268
240 237 234 231 229 228 225 224 226 229 230 231 231 232 236 241 249 258 265 267 272 283 294 300 303 306 308 308 309 309 310 310 310 310 311 311 311 309 307 305 304 303 300 296 292 287 285 283 282 282 279 272 265 260 256 254 254 255 260 263 263 263 265
244 241 239 235 231 229 226 224 225 227 228 229 231 233 235 240 248 256 259 263 274 286 292 296 299 302 302 302 303 305 306 308 309 309 310 309 309 307 304 302 301 300 297 295 293 290 287 285 284 284 284 280 274 267 261 258 256 254 255 258 261 262 262
247 245 243 240 235 231 227 225 225 227 228 229 232 234 237 242 247 250 254 265 278 285 290 295 296 297 297 298 302 305 308 310 309 309 308 306 306 304 301 298 297 296 295 293 293 292 290 288 286 285 285 284 283 279 271 264 261 260 258 257 259 261 262
252 249 247 244 240 234 229 227 226 226 228 230 234 236 238 241 242 245 256 269 280 287 291 294 294 296 299 303 307 309 309 309 309 308 307 305 303 301 298 295 293 290 289 287 288 289 290 289 287 284 282 283 283 283 280 275 269 265 264 261 259 259 261
255 252 249 246 242 236 231 228 226 226 227 230 234 237 238 238 238 244 258 271 282 290 292 293 296 301 305 307 308 307 306 306 307 307 306 305 304 301 299 295 291 287 284 282 281 282 283 284 283 282 280 278 278 278 280 280 278 274 270 267 262 259 260
252 251 249 246 240 234 230 228 225 223 224 226 230 234 234 234 238 247 259 271 282 289 293 297 302 305 305 305 303 303 303 304 305 305 304 304 303 301 299 297 293 288 284 281 278 276 275 275 276 277 277 277 276 275 276 277 278 278 276 272 267 262 260
252 250 246 239 232 228 226 226 224 220 220 223 227 229 229 232 240 251 262 274 284 293 298 301 303 301 300 300 300 301 302 302 303 303 302 302 301 300 298 297 294 290 286 282 279 276 274 273 272 273 274 275 276 276 277 276 275 275 276 275 273 268 265
257 252 244 234 226 224 225 225 223 220 218 221 224 226 230 235 244 255 266 279 292 300 302 300 298 297 296 297 299 301 302 302 302 301 300 299 298 297 296 295 294 291 288 284 281 279 276 274 272 272 273 273 274 274 274 275 274 274 274 274 274 273 270
261 256 248 237 228 227 227 224 220 218 217 219 223 228 234 243 252 262 272 285 298 302 299 296 294 295 296 299 301 303 303 304 303 302 300 298 297 295 294 293 292 290 289 287 284 282 279 277 276 275 275 273 272 270 269 269 270 271 272 272 272 271 270
262 256 246 236 231 226 222 218 214 214 216 218 224 231 239 251 261 269 278 290 297 296 294 293 294 297 300 302 303 303 304 305 305 304 302 300 297 294 293 292 291 289 288 287 286 285 283 282 280 278 277 275 272 270 269 267 266 267 268 268 269 268 267
260 251 235 228 227 219 212 210 208 210 212 217 227 237 247 259 267 274 283 290 293 292 292 294 298 301 303 303 302 302 303 305 305 305 304 301 298 295 293 292 290 289 288 286 285 284 284 283 282 281 279 276 274 271 271 270 269 268 266 265 265 266 266
253 241 226 223 222 212 204 204 203 204 208 216 230 242 254 263 268 275 283 288 289 290 292 298 305 307 305 304 304 304 304 305 306 306 304 301 298 295 294 292 290 288 287 285 284 284 283 283 282 281 279 277 276 274 273 273 273 272 270 267 265 266 266
246 235 224 218 212 203 201 201 198 201 208 217 230 244 253 261 267 275 281 285 287 290 295 304 310 310 307 306 307 307 307 307 307 307 305 302 299 296 294 292 290 288 286 285 284 283 283 282 281 279 278 277 276 276 274 274 274 273 272 270 267 265 265
243 231 218 208 201 198 198 196 195 203 212 220 232 242 249 258 267 275 280 284 289 294 301 307 310 309 308 308 309 309 310 310 309 308 306 304 301 298 295 293 291 289 287 286 286 284 283 282 280 279 277 276 276 275 274 274 275 274 273 272 270 267 265
238 222 208 201 198 194 190 190 195 204 213 222 231 239 249 259 268 275 281 288 296 301 304 307 309 309 310 311 311 311 312 311 310 309 307 306 303 299 297 294 292 290 288 286 285 284 282 280 278 277 276 275 275 274 274 274 275 275 275 274 273 271 269
231 215 202 196 190 182 181 187 194 201 210 222 232 242 254 261 267 277 288 296 300 302 304 306 309 311 312 313 313 314 314 312 311 310 309 306 303 300 298 295 293 290 288 286 285 283 282 279 276 274 273 273 273 273 273 275 275 275 276 275 275 273 272
217 202 190 183 177 173 177 185 190 199 211 224 237 249 256 263 274 288 296 299 300 302 305 309 312 313 314 315 317 317 316 314 313 312 309 306 304 301 298 296 293 290 288 286 284 283 282 280 278 275 273 271 270 271 273 274 274 273 274 273 273 274 274
199 186 175 171 167 164 170 179 191 205 216 227 239 249 262 277 290 296 297 299 300 304 310 313 314 315 317 319 321 320 318 316 315 313 309 307 304 302 300 298 295 293 291 289 287 285 283 280 278 275 272 269 269 270 272 272 272 272 272 271 271 271 272
184 173 165 162 158 159 171 187 202 211 215 225 237 262 292 301 304 303 302 302 305 310 315 315 316 319 321 323 324 323 320 318 316 313 310 307 305 302 301 299 298 297 296 294 291 288 285 282 279 274 271 269 269 269 269 269 270 270 269 268 267 266 267
166 162 159 155 155 162 171 175 181 188 192 220 280 317 321 317 314 310 308 311 316 319 319 318 320 323 325 326 326 324 322 319 316 313 309 306 305 303 302 300 299 299 297 294 292 289 285 282 279 275 272 270 269 268 267 266 266 265 264 263 263 262 262
155 158 154 147 145 141 128 114 110 108 78 21 340 326 322 316 313 312 315 321 325 325 322 322 325 328 329 329 328 327 324 320 317 313 308 305 304 303 302 300 299 298 296 293 290 287 284 280 277 275 274 272 270 268 266 264 263 263 262 262 260 260 260